Skip Page Navigation
NASA JPL Caltech
NASA Logo - Jet Propulsion Laboratory + View the NASA Portal
+ Center for Near-Earth Object Studies
JPL Home Earth Solar System Stars & Galaxies Technology
JPL Solar System Dynamics
BODIES ORBITS EPHEMERIDES TOOLS PHYSICAL DATA DISCOVERY FAQ SITE MAP
IMPORTANT: The SSD Announcement email list is now available. Major changes are coming in the near future, including possible hostname and/or URL changes. To be notified of such changes, subscribe to this email list.

Please visit this page for more details.


JPL Small-Body Database Browser
Search: [ help ]  
56469 (2000 GN105)
Classification: Main-belt Asteroid          SPK-ID: 2056469
Ephemeris | Orbit Diagram | Orbital Elements | Mission Design | Physical Parameters | Discovery Circumstances | Close-Approach Data ]

[ show orbit diagram ]
Orbital Elements at Epoch 2458600.5 (2019-Apr-27.0) TDB
Reference: JPL 22 (heliocentric ecliptic J2000)
 Element Value Uncertainty (1-sigma)   Units 
e .1526490852986991 2.9855e-08  
a 2.294988439890853 8.1639e-09 au
q 1.944660553770426 6.8559e-08 au
i 3.450617508780545 3.7694e-06 deg
node 73.47550133447784 7.0912e-05 deg
peri 202.7457772127685 7.243e-05 deg
M 113.5039765369368 1.5784e-05 deg
tp 2458200.115038882628
(2018-Mar-22.61503888)
5.4964e-05 TDB
period 1269.898997374317
3.48
6.7761e-06
1.855e-08
d
yr
n .283487112553319 1.5127e-09 deg/d
Q 2.64531632601128 9.4101e-09 au
  Orbit Determination Parameters
   # obs. used (total)      940  
   data-arc span      9759 days (26.72 yr)  
   first obs. used      1993-03-19  
   last obs. used      2019-12-07  
   planetary ephem.      DE431  
   SB-pert. ephem.      SB431-N16  
   condition code      0  
   norm. resid. RMS      .55103  
   source      ORB  
   producer      Otto Matic  
   solution date      2019-Dec-14 05:44:19  

Additional Information
 Earth MOID = .928322 au 
 Jupiter MOID = 2.46133 au 
 T_jup = 3.578 
[ show covariance matrix ]

Ephemeris | Orbit Diagram | Orbital Elements | Mission Design | Physical Parameters | Discovery Circumstances | Close-Approach Data ]

Physical Parameter Table
Parameter Symbol Value Units Sigma Reference Notes
absolute magnitude H 15.9   n/a MPO351234  

56469 (2000 GN105)          Discovered 2000-Apr-07 by LINEAR at Socorro
Reference: 20030318/Numbers.arcLast Updated: 2004-04-19

[ show close-approach data ]
Alternate Designations
 2000 GN105 = 1993 FK34 = 1993 HX4 
Ephemeris | Orbit Diagram | Orbital Elements | Mission Design | Physical Parameters | Discovery Circumstances | Close-Approach Data ]
ABOUT SSD CREDITS/AWARDS PRIVACY/COPYRIGHT GLOSSARY LINKS
FirstGov 2020-Jan-21 08:45 UT
(server date/time)  
NASA Home Page
Site Manager:   Ryan S. Park
Webmaster  Alan B. Chamberlin